Location: Monrovia
(34.7865°N, 86.7139°W)
Time: 21:14:14
(UTC+00:00)

Cosmos 2297 - Pass Details

Date: 14 July 2020
Orbit: 835 x 859 km, 71.0° (Epoch: 08 August)

Event Time Altitude Azimuth Distance (km) Brightness Sun altitude
Rises 03:51:05 0° 341° (NNW) 3,432 8.1 -26.6°
Reaches altitude 10° 03:53:34 10° 343° (NNW) 2,490 7.1 -26.9°
Maximum altitude 03:59:17 73° 68° (ENE) 891 3.6 -27.5°
Enters shadow 03:59:19 73° 72° (ENE) 891 3.6 -27.5°
